This demonstration page uses our WeatherBlox Daily Observations layout. Learn more.

Left ArrowRight Arrow

Hourly Observations for November 16, 2016

Temp ( °F °C ) Dew Point ( °F °C ) Humidity (%) Winds ( mph kmh ) Pressure ( in mb ) Visibility ( mi km ) Precip ( " mm )
12:51 am 00:51 Clear 48 8.9 33 0.6 56 56 N N/A 29.94 1014 10 16.0934 N/A
1:51 am 01:51 Clear 47 8.3 33 0.6 59 59 N 3 6 29.94 1014 10 16.0934 N/A
2:51 am 02:51 Clear 48 8.9 33 0.6 56 56 N N/A 29.94 1014 10 16.0934 N/A
3:51 am 03:51 Clear 45 7.2 33 0.6 63 63 S 3 6 29.94 1014 10 16.0934 N/A
4:51 am 04:51 Clear 45 7.2 32 undefined 61 61 ESE 8 13 29.92 1013 10 16.0934 N/A
5:51 am 05:51 Clear 46 7.8 31 -0.6 56 56 SSE 13 20 29.93 1014 10 16.0934 N/A
6:51 am 06:51 Sunny 48 8.9 30 -1.1 50 50 SE 10 17 29.93 1014 10 16.0934 N/A
7:51 am 07:51 Sunny 52 11.1 30 -1.1 43 43 SE 8 13 29.97 1015 10 16.0934 N/A
8:51 am 08:51 Sunny 62 16.7 32 undefined 32 32 ESE 13 20 29.93 1014 10 16.0934 N/A
9:51 am 09:51 Sunny 66 18.9 32 undefined 28 28 SE 10 17 29.91 1013 10 16.0934 N/A
10:51 am 10:51 Sunny 70 21.1 32 undefined 25 25 SE 10 17 29.89 1012 10 16.0934 N/A
11:51 am 11:51 Sunny 72 22.2 30 -1.1 21 21 SE 8 13 29.86 1011 10 16.0934 N/A
12:51 pm 12:51 Sunny 74 23.3 27 -2.8 17 17 SE 5 7 29.82 1010 10 16.0934 N/A
1:51 pm 13:51 Sunny 75 23.9 27 -2.8 17 17 VRB 3 6 29.79 1009 10 16.0934 N/A
1:52 pm 13:52 Mostly Cloudy 73 22.8 31 -0.6 21 21 SW 16 26 29.77 1008 0.75 1.2 N/A
2:51 pm 14:51 Sunny 75 23.9 27 -2.8 17 17 N N/A 29.77 1008 10 16.0934 N/A
3:51 pm 15:51 Sunny 77 25 28 -2.2 16 16 N N/A 29.75 1007 10 16.0934 N/A
4:51 pm 16:51 Sunny with Light Rain 70 21.1 33 0.6 26 26 WSW 5 7 29.75 1007 10 16.0934 N/A
5:51 pm 17:51 Clear 64 17.8 34 1.1 33 33 NNW 5 7 29.76 1008 10 16.0934 N/A
6:51 pm 18:51 Clear 63 17.2 33 0.6 33 33 N 7 11 29.75 1008 10 16.0934 N/A
7:51 pm 19:51 Clear 60 15.6 35 1.7 39 39 WNW 7 11 29.75 1008 10 16.0934 N/A
8:51 pm 20:51 Clear 61 16.1 34 1.1 36 36 E 7 11 29.73 1007 10 16.0934 N/A
9:51 pm 21:51 Clear 57 13.9 34 1.1 42 42 E 7 11 29.73 1007 10 16.0934 N/A
10:51 pm 22:51 Clear 56 13.3 33 0.6 42 42 SE 6 9 29.71 1006 10 16.0934 N/A
11:51 pm 23:51 Clear 56 13.3 34 1.1 44 44 undefined N/A 29.7 1006 10 16.0934 N/A

Powered by AerisWeather